Hatteras, NC

6:52 PM EDT on March 23, 2017 (GMT -0400)
Mitchell

Weather History for KHSE - February, 2014

Change the Weather History Date:

Thursday, February 27, 2014

  Actual Average Record
Temperature  
Mean Temperature 46 °F 48 °F  
Max Temperature 52 °F 55 °F 72 °F (1977)
Min Temperature 39 °F 41 °F 17 °F (1970)
Degree Days  
Heating Degree Days 19 17  
Month to date heating degree days 463 494  
Since 1 July heating degree days 1808 1907  
Cooling Degree Days 0 0  
Month to date cooling degree days 0 0  
Year to date cooling degree days 0 0  
Moisture  
Dew Point 34 °F    
Average Humidity 68    
Maximum Humidity 86    
Minimum Humidity 50    
Precipitation  
Precipitation 0.00 in 0.14 in 3.81 in (1899)
Month to date precipitation 4.75 3.88  
Year to date precipitation 10.09 9.12  
Snow  
Snow 0.00 in - - ()
Month to date snowfall 5.5  
Since 1 July snowfall 5.7  
Snow Depth 0.00 in    
Sea Level Pressure  
Sea Level Pressure 29.83 in    
Wind  
Wind Speed 8 mph (WNW)    
Max Wind Speed 15 mph    
Max Gust Speed 20 mph    
Visibility 10 miles    
Events      
T = Trace of Precipitation, MM = Missing Value Source: NWS Daily Summary

Daily Weather History Graph

Daily Weather History Graph

Search for Another Location

Airport or City:

Trip Planner

Search our weather history database for the weather conditions in past years. The results will help you decide how hot, cold, wet, or windy it might be!

Date:

Astronomy

Feb. 27, 2014 Rise Set
Actual Time 6:34 AM EST 5:56 PM EST
Civil Twilight 6:09 AM EST 6:21 PM EST
Nautical Twilight 5:39 AM EST 6:51 PM EST
Astronomical Twilight 5:10 AM EST 7:20 PM EST
Moon 5:02 AM EST (2/27) 4:21 PM EST (2/27)
Length of Visible Light 12h 12m
Length of Day
11h 21m
Waning Crescent, 4% of the Moon is Illuminated
Feb 27
Waning Crescent
Mar 1
New
Mar 8
First Quarter
Mar 16
Full
Mar 23
Last Quarter

Hourly Weather History & Observations

Time (EST) Temp. Windchill Dew Point Humidity Pressure Visibility Wind Dir Wind Speed Gust Speed Precip Events Conditions
12:51 AM 41.0 °F 35.2 °F 34.0 °F 76% 29.81 in 10.0 mi NE 9.2 mph 18.4 mph N/A   Overcast
1:51 AM 41.0 °F 35.2 °F 34.0 °F 76% 29.79 in 10.0 mi NE 9.2 mph - N/A   Overcast
2:51 AM 39.9 °F 35.8 °F 33.1 °F 77% 29.77 in 10.0 mi NE 5.8 mph - N/A   Partly Cloudy
3:51 AM 39.9 °F 35.1 °F 33.1 °F 77% 29.78 in 10.0 mi NNE 6.9 mph - N/A   Clear
4:51 AM 39.0 °F 34.8 °F 30.9 °F 73% 29.79 in 10.0 mi Variable 5.8 mph - N/A   Clear
5:51 AM 39.0 °F 34.8 °F 30.0 °F 70% 29.81 in 10.0 mi Variable 5.8 mph - N/A   Clear
6:51 AM 39.0 °F 34.0 °F 28.9 °F 67% 29.82 in 10.0 mi Variable 6.9 mph - N/A   Clear
7:51 AM 41.0 °F 37.1 °F 33.1 °F 73% 29.84 in 10.0 mi Variable 5.8 mph - N/A   Clear
8:51 AM 43.0 °F 41.3 °F 32.0 °F 65% 29.86 in 10.0 mi Variable 3.5 mph - N/A   Clear
9:51 AM 43.0 °F 39.5 °F 28.0 °F 56% 29.86 in 10.0 mi NNW 5.8 mph - N/A   Clear
10:51 AM 45.0 °F 41.2 °F 28.0 °F 52% 29.84 in 10.0 mi WNW 6.9 mph - N/A   Clear
11:51 AM 46.0 °F 41.9 °F 30.0 °F 54% 29.82 in 10.0 mi West 8.1 mph - N/A   Clear
12:51 PM 46.9 °F - 32.0 °F 56% 29.80 in 10.0 mi West 9.2 mph - N/A   Clear
1:51 PM 48.0 °F - 30.9 °F 52% 29.77 in 10.0 mi West 12.7 mph 18.4 mph N/A   Clear
2:51 PM 50.0 °F - 33.1 °F 52% 29.76 in 10.0 mi West 10.4 mph 18.4 mph N/A   Clear
3:51 PM 51.1 °F - 34.0 °F 52% 29.77 in 10.0 mi West 11.5 mph 17.3 mph N/A   Clear
4:51 PM 51.1 °F - 37.0 °F 59% 29.79 in 10.0 mi WSW 10.4 mph - N/A   Clear
5:51 PM 48.9 °F - 37.0 °F 64% 29.81 in 10.0 mi West 6.9 mph - N/A   Clear
6:51 PM 48.0 °F - 39.0 °F 71% 29.84 in 10.0 mi West 6.9 mph - N/A   Clear
7:51 PM 46.9 °F - 39.0 °F 74% 29.88 in 10.0 mi West 6.9 mph - N/A   Clear
8:51 PM 46.9 °F - 41.0 °F 80% 29.91 in 10.0 mi West 8.1 mph - N/A   Clear
9:51 PM 46.0 °F 43.1 °F 41.0 °F 83% 29.94 in 10.0 mi West 5.8 mph - N/A   Clear
10:51 PM 46.0 °F 43.1 °F 42.1 °F 86% 29.95 in 10.0 mi West 5.8 mph - N/A   Clear
11:51 PM 45.0 °F 41.8 °F 42.1 °F 90% 29.96 in 10.0 mi WNW 5.8 mph - N/A   Clear